owner,sensor,date,latitude,longitude,vertical_datum,direction_of_sea_water_velocity,sea_water_speed,upward_sea_water_velocity,qcFlag 
TABS,ioos:station:wmo:42047:1,2009-12-01T00:00:00Z,27.8966,-93.5973,2.0,205.3329906,14.77040622,-99999.0,'11111222,11111222,99999999' 
TABS,ioos:station:wmo:42047:1,2009-12-01T00:30:00Z,27.8966,-93.5973,2.0,192.3613562,8.548181093,-99999.0,'11133222,11111222,99999999' 
TABS,ioos:station:wmo:42047:1,2009-12-01T01:00:00Z,27.8966,-93.5973,2.0,180.0833108,6.860007289,-99999.0,'11133222,11111222,99999999' 
TABS,ioos:station:wmo:42047:1,2009-12-01T01:30:00Z,27.8966,-93.5973,2.0,198.8344258,13.59812487,-99999.0,'11111222,11111222,99999999' 
TABS,ioos:station:wmo:42047:1,2009-12-01T02:00:00Z,27.8966,-93.5973,2.0,205.2869311,10.62843827,-99999.0,'11111222,11111222,99999999' 
TABS,ioos:station:wmo:42047:1,2009-12-01T02:30:00Z,27.8966,-93.5973,2.0,235.6066116,11.75498192,-99999.0,'11111222,11111222,99999999' 
TABS,ioos:station:wmo:42047:1,2009-12-01T03:00:00Z,27.8966,-93.5973,2.0,233.532332,10.53225997,-99999.0,'11111222,11111222,99999999' 
TABS,ioos:station:wmo:42047:1,2009-12-01T03:30:00Z,27.8966,-93.5973,2.0,242.8850084,1.864966488,-99999.0,'11133222,11111222,99999999' 
TABS,ioos:station:wmo:42047:1,2009-12-01T04:00:00Z,27.8966,-93.5973,2.0,233.5901427,7.716249089,-99999.0,'11133222,11111222,99999999' 
TABS,ioos:station:wmo:42047:1,2009-12-01T04:30:00Z,27.8966,-93.5973,2.0,217.0421777,7.968036144,-99999.0,'11133222,11111222,99999999' 
TABS,ioos:station:wmo:42047:1,2009-12-01T05:00:00Z,27.8966,-93.5973,2.0,228.7563455,9.3893397,-99999.0,'11133222,11111222,99999999' 
TABS,ioos:station:wmo:42047:1,2009-12-01T05:30:00Z,27.8966,-93.5973,2.0,227.7705801,9.50756015,-99999.0,'11133222,11111222,99999999' 
TABS,ioos:station:wmo:42047:1,2009-12-01T06:00:00Z,27.8966,-93.5973,2.0,239.704922,6.462507253,-99999.0,'11133222,11111222,99999999' 
TABS,ioos:station:wmo:42047:1,2009-12-01T06:30:00Z,27.8966,-93.5973,2.0,228.5032078,10.06680188,-99999.0,'11111222,11111222,99999999' 
TABS,ioos:station:wmo:42047:1,2009-12-01T07:00:00Z,27.8966,-93.5973,2.0,232.0294559,7.915459557,-99999.0,'11133222,11111222,99999999' 
TABS,ioos:station:wmo:42047:1,2009-12-01T07:30:00Z,27.8966,-93.5973,2.0,192.8193587,6.625141508,-99999.0,'11133222,11111222,99999999' 
TABS,ioos:station:wmo:42047:1,2009-12-01T08:00:00Z,27.8966,-93.5973,2.0,233.883752,10.9429475,-99999.0,'11111222,11111222,99999999' 
TABS,ioos:station:wmo:42047:1,2009-12-01T08:30:00Z,27.8966,-93.5973,2.0,240.3871624,11.27230677,-99999.0,'11111222,11111222,99999999' 
TABS,ioos:station:wmo:42047:1,2009-12-01T09:00:00Z,27.8966,-93.5973,2.0,214.9247329,12.61126481,-99999.0,'11111222,11111222,99999999' 
TABS,ioos:station:wmo:42047:1,2009-12-01T09:30:00Z,27.8966,-93.5973,2.0,243.3811924,14.39581189,-99999.0,'11111222,11111222,99999999' 
TABS,ioos:station:wmo:42047:1,2009-12-01T10:00:00Z,27.8966,-93.5973,2.0,241.9849954,15.73353743,-99999.0,'11111222,11111222,99999999' 
TABS,ioos:station:wmo:42047:1,2009-12-01T10:30:00Z,27.8966,-93.5973,2.0,227.7397026,11.24170806,-99999.0,'11111222,11111222,99999999' 
TABS,ioos:station:wmo:42047:1,2009-12-01T11:00:00Z,27.8966,-93.5973,2.0,253.7361626,14.10440002,-99999.0,'11111222,11111222,99999999' 
TABS,ioos:station:wmo:42047:1,2009-12-01T11:30:00Z,27.8966,-93.5973,2.0,236.6360794,20.9291782,-99999.0,'11111222,11111222,99999999' 
TABS,ioos:station:wmo:42047:1,2009-12-01T12:00:00Z,27.8966,-93.5973,2.0,242.0105596,23.03414205,-99999.0,'11111222,11111222,99999999' 
TABS,ioos:station:wmo:42047:1,2009-12-01T12:30:00Z,27.8966,-93.5973,2.0,240.7129071,26.3706276,-99999.0,'11111222,11111222,99999999' 
TABS,ioos:station:wmo:42047:1,2009-12-01T13:00:00Z,27.8966,-93.5973,2.0,251.9644755,29.45733355,-99999.0,'11111222,11111222,99999999' 
TABS,ioos:station:wmo:42047:1,2009-12-01T13:30:00Z,27.8966,-93.5973,2.0,265.9473917,23.20801801,-99999.0,'11111222,11111222,99999999' 
TABS,ioos:station:wmo:42047:1,2009-12-01T14:00:00Z,27.8966,-93.5973,2.0,267.4587378,25.71528145,-99999.0,'11111222,11111222,99999999' 
TABS,ioos:station:wmo:42047:1,2009-12-01T14:30:00Z,27.8966,-93.5973,2.0,267.4073585,32.72348545,-99999.0,'11111222,11111222,99999999' 
TABS,ioos:station:wmo:42047:1,2009-12-01T15:00:00Z,27.8966,-93.5973,2.0,275.0598762,29.59531213,-99999.0,'11111222,11111222,99999999' 
TABS,ioos:station:wmo:42047:1,2009-12-01T15:30:00Z,27.8966,-93.5973,2.0,279.2254286,26.1988473,-99999.0,'11111222,11111222,99999999' 
TABS,ioos:station:wmo:42047:1,2009-12-01T16:00:00Z,27.8966,-93.5973,2.0,279.9880745,27.79117306,-99999.0,'11111222,11111222,99999999' 
TABS,ioos:station:wmo:42047:1,2009-12-01T16:30:00Z,27.8966,-93.5973,2.0,272.4544469,23.82184712,-99999.0,'11111222,11111222,99999999' 
TABS,ioos:station:wmo:42047:1,2009-12-01T17:00:00Z,27.8966,-93.5973,2.0,271.3078161,26.29684582,-99999.0,'11111222,11111222,99999999' 
TABS,ioos:station:wmo:42047:1,2009-12-01T17:30:00Z,27.8966,-93.5973,2.0,276.5758892,16.94144327,-99999.0,'11111222,11111222,99999999' 
TABS,ioos:station:wmo:42047:1,2009-12-01T18:00:00Z,27.8966,-93.5973,2.0,277.3675276,21.13446711,-99999.0,'11111222,11111222,99999999' 
TABS,ioos:station:wmo:42047:1,2009-12-01T18:30:00Z,27.8966,-93.5973,2.0,275.696675,15.91860547,-99999.0,'11111222,11111222,99999999' 
TABS,ioos:station:wmo:42047:1,2009-12-01T19:00:00Z,27.8966,-93.5973,2.0,270.876514,21.58252302,-99999.0,'11111222,11111222,99999999' 
TABS,ioos:station:wmo:42047:1,2009-12-01T19:30:00Z,27.8966,-93.5973,2.0,272.5653799,21.45149179,-99999.0,'11111222,11111222,99999999' 
TABS,ioos:station:wmo:42047:1,2009-12-01T20:00:00Z,27.8966,-93.5973,2.0,279.6930718,21.26353686,-99999.0,'11111222,11111222,99999999' 
TABS,ioos:station:wmo:42047:1,2009-12-01T20:30:00Z,27.8966,-93.5973,2.0,284.3497194,19.08541328,-99999.0,'11111222,11111222,99999999' 
TABS,ioos:station:wmo:42047:1,2009-12-01T21:00:00Z,27.8966,-93.5973,2.0,287.1132867,20.69629194,-99999.0,'11111222,11111222,99999999' 
TABS,ioos:station:wmo:42047:1,2009-12-01T21:30:00Z,27.8966,-93.5973,2.0,292.4001456,20.62630602,-99999.0,'11111222,11111222,99999999' 
TABS,ioos:station:wmo:42047:1,2009-12-01T22:00:00Z,27.8966,-93.5973,2.0,273.317202,25.06198117,-99999.0,'11111222,11111222,99999999' 
TABS,ioos:station:wmo:42047:1,2009-12-01T22:30:00Z,27.8966,-93.5973,2.0,280.5269841,16.64004808,-99999.0,'11111222,11111222,99999999' 
TABS,ioos:station:wmo:42047:1,2009-12-01T23:00:00Z,27.8966,-93.5973,2.0,275.4865645,19.55959611,-99999.0,'11111222,11111222,99999999' 
TABS,ioos:station:wmo:42047:1,2009-12-01T23:30:00Z,27.8966,-93.5973,2.0,286.192467,18.50401308,-99999.0,'11111222,11111222,99999999' 
TABS,ioos:station:wmo:42047:1,2009-12-02T00:00:00Z,27.8966,-93.5973,2.0,280.3877903,19.24540984,-99999.0,'11111222,11111222,99999999' 
TABS,ioos:station:wmo:42047:1,2009-12-02T00:30:00Z,27.8966,-93.5973,2.0,289.7256306,10.25154135,-99999.0,'11111222,11111222,99999999' 
TABS,ioos:station:wmo:42047:1,2009-12-02T01:00:00Z,27.8966,-93.5973,2.0,283.111607,11.41763986,-99999.0,'11111222,11111222,99999999' 
TABS,ioos:station:wmo:42047:1,2009-12-02T01:30:00Z,27.8966,-93.5973,2.0,283.5676619,12.14901642,-99999.0,'11111222,11111222,99999999' 
TABS,ioos:station:wmo:42047:1,2009-12-02T02:00:00Z,27.8966,-93.5973,2.0,288.2700058,15.34343508,-99999.0,'11111222,11111222,99999999' 
TABS,ioos:station:wmo:42047:1,2009-12-02T02:30:00Z,27.8966,-93.5973,2.0,283.7489475,12.07600099,-99999.0,'11111222,11111222,99999999' 
TABS,ioos:station:wmo:42047:1,2009-12-02T03:00:00Z,27.8966,-93.5973,2.0,287.5427238,15.42746253,-99999.0,'11111222,11111222,99999999' 
TABS,ioos:station:wmo:42047:1,2009-12-02T03:30:00Z,27.8966,-93.5973,2.0,319.3899814,13.76532237,-99999.0,'11111222,11111222,99999999' 
TABS,ioos:station:wmo:42047:1,2009-12-02T04:00:00Z,27.8966,-93.5973,2.0,112.4913119,19.89312695,-99999.0,'11111222,11111222,99999999' 
TABS,ioos:station:wmo:42047:1,2009-12-02T04:30:00Z,27.8966,-93.5973,2.0,123.7605341,24.77847655,-99999.0,'11111222,11111222,99999999' 
TABS,ioos:station:wmo:42047:1,2009-12-02T05:00:00Z,27.8966,-93.5973,2.0,120.8575812,16.66969106,-99999.0,'11111222,11111222,99999999' 
TABS,ioos:station:wmo:42047:1,2009-12-02T05:30:00Z,27.8966,-93.5973,2.0,137.0762483,15.41797976,-99999.0,'11111222,11111222,99999999' 
TABS,ioos:station:wmo:42047:1,2009-12-02T06:00:00Z,27.8966,-93.5973,2.0,134.2899479,11.41357963,-99999.0,'11111222,11111222,99999999' 
TABS,ioos:station:wmo:42047:1,2009-12-02T06:30:00Z,27.8966,-93.5973,2.0,168.1962337,7.284023613,-99999.0,'11133222,11111222,99999999' 
TABS,ioos:station:wmo:42047:1,2009-12-02T07:00:00Z,27.8966,-93.5973,2.0,160.4796524,6.344667052,-99999.0,'11133222,11111222,99999999' 
TABS,ioos:station:wmo:42047:1,2009-12-02T07:30:00Z,27.8966,-93.5973,2.0,173.3331452,6.97717708,-99999.0,'11133222,11111222,99999999' 
TABS,ioos:station:wmo:42047:1,2009-12-02T08:00:00Z,27.8966,-93.5973,2.0,173.387304,8.597191402,-99999.0,'11133222,11111222,99999999' 
TABS,ioos:station:wmo:42047:1,2009-12-02T08:30:00Z,27.8966,-93.5973,2.0,200.9220381,7.140826283,-99999.0,'11133222,11111222,99999999' 
TABS,ioos:station:wmo:42047:1,2009-12-02T09:00:00Z,27.8966,-93.5973,2.0,176.4620576,12.96470594,-99999.0,'11111222,11111222,99999999' 
TABS,ioos:station:wmo:42047:1,2009-12-02T09:30:00Z,27.8966,-93.5973,2.0,126.6770057,7.132040381,-99999.0,'11133222,11111222,99999999' 
TABS,ioos:station:wmo:42047:1,2009-12-02T10:00:00Z,27.8966,-93.5973,2.0,189.8997866,2.152045539,-99999.0,'11133222,11111222,99999999' 
TABS,ioos:station:wmo:42047:1,2009-12-02T10:30:00Z,27.8966,-93.5973,2.0,150.6337865,3.752132727,-99999.0,'11133222,11111222,99999999' 
TABS,ioos:station:wmo:42047:1,2009-12-02T11:00:00Z,27.8966,-93.5973,2.0,126.2864224,4.714244372,-99999.0,'11133222,11111222,99999999' 
TABS,ioos:station:wmo:42047:1,2009-12-02T11:30:00Z,27.8966,-93.5973,2.0,118.5993934,12.47170397,-99999.0,'11111222,11111222,99999999' 
TABS,ioos:station:wmo:42047:1,2009-12-02T12:00:00Z,27.8966,-93.5973,2.0,98.00471014,5.816674308,-99999.0,'11133222,11111222,99999999' 
TABS,ioos:station:wmo:42047:1,2009-12-02T12:30:00Z,27.8966,-93.5973,2.0,142.9461547,9.974051333,-99999.0,'11133222,11111222,99999999' 
TABS,ioos:station:wmo:42047:1,2009-12-02T13:00:00Z,27.8966,-93.5973,2.0,123.5917537,6.470587299,-99999.0,'11133222,11111222,99999999' 
TABS,ioos:station:wmo:42047:1,2009-12-02T13:30:00Z,27.8966,-93.5973,2.0,84.51124448,6.16828177,-99999.0,'11133222,11111222,99999999' 
TABS,ioos:station:wmo:42047:1,2009-12-02T14:00:00Z,27.8966,-93.5973,2.0,104.3271833,5.253389382,-99999.0,'11133222,11111222,99999999' 
TABS,ioos:station:wmo:42047:1,2009-12-02T14:30:00Z,27.8966,-93.5973,2.0,129.9202988,3.833431883,-99999.0,'11133222,11111222,99999999' 
TABS,ioos:station:wmo:42047:1,2009-12-02T15:00:00Z,27.8966,-93.5973,2.0,116.5268428,6.717149693,-99999.0,'11133222,11111222,99999999' 
TABS,ioos:station:wmo:42047:1,2009-12-02T15:30:00Z,27.8966,-93.5973,2.0,158.3147436,4.573685604,-99999.0,'11133222,11111222,99999999' 
TABS,ioos:station:wmo:42047:1,2009-12-02T16:00:00Z,27.8966,-93.5973,2.0,80.22966178,11.31410182,-99999.0,'11111222,11111222,99999999' 
TABS,ioos:station:wmo:42047:1,2009-12-02T16:30:00Z,27.8966,-93.5973,2.0,94.53225111,9.870866223,-99999.0,'11133222,11111222,99999999' 
TABS,ioos:station:wmo:42047:1,2009-12-02T17:00:00Z,27.8966,-93.5973,2.0,98.09765797,12.49457882,-99999.0,'11111222,11111222,99999999' 
TABS,ioos:station:wmo:42047:1,2009-12-02T17:30:00Z,27.8966,-93.5973,2.0,66.18011951,11.01857069,-99999.0,'11111222,11111222,99999999' 
TABS,ioos:station:wmo:42047:1,2009-12-02T18:00:00Z,27.8966,-93.5973,2.0,106.1102737,15.74845389,-99999.0,'11111222,11111222,99999999' 
TABS,ioos:station:wmo:42047:1,2009-12-02T18:30:00Z,27.8966,-93.5973,2.0,83.43210162,20.2831186,-99999.0,'11111222,11111222,99999999' 
TABS,ioos:station:wmo:42047:1,2009-12-02T19:00:00Z,27.8966,-93.5973,2.0,89.67871937,21.40033645,-99999.0,'11111222,11111222,99999999' 
TABS,ioos:station:wmo:42047:1,2009-12-02T19:30:00Z,27.8966,-93.5973,2.0,89.38368667,24.17139839,-99999.0,'11111222,11111222,99999999' 
TABS,ioos:station:wmo:42047:1,2009-12-02T20:00:00Z,27.8966,-93.5973,2.0,104.8780516,17.99323484,-99999.0,'11111222,11111222,99999999' 
TABS,ioos:station:wmo:42047:1,2009-12-02T20:30:00Z,27.8966,-93.5973,2.0,99.80979156,20.60121598,-99999.0,'11111222,11111222,99999999' 
TABS,ioos:station:wmo:42047:1,2009-12-02T21:00:00Z,27.8966,-93.5973,2.0,95.4420481,15.71081475,-99999.0,'11111222,11111222,99999999' 
TABS,ioos:station:wmo:42047:1,2009-12-02T21:30:00Z,27.8966,-93.5973,2.0,126.1402146,17.90545168,-99999.0,'11111222,11111222,99999999' 
TABS,ioos:station:wmo:42047:1,2009-12-02T22:00:00Z,27.8966,-93.5973,2.0,114.8360922,26.23654893,-99999.0,'11111222,11111222,99999999' 
TABS,ioos:station:wmo:42047:1,2009-12-02T22:30:00Z,27.8966,-93.5973,2.0,139.9382706,24.06733263,-99999.0,'11111222,11111222,99999999' 
TABS,ioos:station:wmo:42047:1,2009-12-02T23:00:00Z,27.8966,-93.5973,2.0,121.6942492,24.21070837,-99999.0,'11111222,11111222,99999999' 
TABS,ioos:station:wmo:42047:1,2009-12-02T23:30:00Z,27.8966,-93.5973,2.0,122.0776722,29.37468468,-99999.0,'11111222,11111222,99999999' 
TABS,ioos:station:wmo:42047:1,2009-12-03T00:00:00Z,27.8966,-93.5973,2.0,145.738212,24.74363352,-99999.0,'11111222,11111222,99999999' 
TABS,ioos:station:wmo:42047:1,2009-12-03T00:30:00Z,27.8966,-93.5973,2.0,144.7933181,24.9425099,-99999.0,'11111222,11111222,99999999' 
TABS,ioos:station:wmo:42047:1,2009-12-03T01:00:00Z,27.8966,-93.5973,2.0,135.7064372,25.8042884,-99999.0,'11111222,11111222,99999999' 
TABS,ioos:station:wmo:42047:1,2009-12-03T01:30:00Z,27.8966,-93.5973,2.0,137.6588623,28.04576617,-99999.0,'11111222,11111222,99999999' 
TABS,ioos:station:wmo:42047:1,2009-12-03T02:00:00Z,27.8966,-93.5973,2.0,155.0878826,28.36962108,-99999.0,'11111222,11111222,99999999' 
TABS,ioos:station:wmo:42047:1,2009-12-03T02:30:00Z,27.8966,-93.5973,2.0,172.0177566,24.62861141,-99999.0,'11111222,11111222,99999999' 
TABS,ioos:station:wmo:42047:1,2009-12-03T03:00:00Z,27.8966,-93.5973,2.0,151.7493695,20.07068509,-99999.0,'11111222,11111222,99999999' 
TABS,ioos:station:wmo:42047:1,2009-12-03T03:30:00Z,27.8966,-93.5973,2.0,135.4010915,21.20665226,-99999.0,'11111222,11111222,99999999' 
TABS,ioos:station:wmo:42047:1,2009-12-03T04:00:00Z,27.8966,-93.5973,2.0,140.6976688,15.74018107,-99999.0,'11111222,11111222,99999999' 
TABS,ioos:station:wmo:42047:1,2009-12-03T04:30:00Z,27.8966,-93.5973,2.0,151.3893968,18.41904721,-99999.0,'11111222,11111222,99999999' 
TABS,ioos:station:wmo:42047:1,2009-12-03T05:00:00Z,27.8966,-93.5973,2.0,158.0672939,18.66057341,-99999.0,'11111222,11111222,99999999' 
TABS,ioos:station:wmo:42047:1,2009-12-03T05:30:00Z,27.8966,-93.5973,2.0,166.5237385,15.8771408,-99999.0,'11111222,11111222,99999999' 
TABS,ioos:station:wmo:42047:1,2009-12-03T06:00:00Z,27.8966,-93.5973,2.0,179.8161503,12.4800641,-99999.0,'11111222,11111222,99999999' 
TABS,ioos:station:wmo:42047:1,2009-12-03T06:30:00Z,27.8966,-93.5973,2.0,168.4839437,15.27754561,-99999.0,'11111222,11111222,99999999' 
TABS,ioos:station:wmo:42047:1,2009-12-03T07:00:00Z,27.8966,-93.5973,2.0,159.656353,9.780025562,-99999.0,'11133222,11111222,99999999' 
TABS,ioos:station:wmo:42047:1,2009-12-03T07:30:00Z,27.8966,-93.5973,2.0,168.2680827,12.78711852,-99999.0,'11111222,11111222,99999999' 
TABS,ioos:station:wmo:42047:1,2009-12-03T08:00:00Z,27.8966,-93.5973,2.0,168.6672757,14.91071092,-99999.0,'11111222,11111222,99999999' 
TABS,ioos:station:wmo:42047:1,2009-12-03T08:30:00Z,27.8966,-93.5973,2.0,176.8893944,14.19090554,-99999.0,'11111222,11111222,99999999' 
TABS,ioos:station:wmo:42047:1,2009-12-03T09:00:00Z,27.8966,-93.5973,2.0,160.4404953,13.05323332,-99999.0,'11111222,11111222,99999999' 
TABS,ioos:station:wmo:42047:1,2009-12-03T09:30:00Z,27.8966,-93.5973,2.0,185.1977666,14.56991764,-99999.0,'11111222,11111222,99999999' 
TABS,ioos:station:wmo:42047:1,2009-12-03T10:00:00Z,27.8966,-93.5973,2.0,176.3797123,15.52096969,-99999.0,'11111222,11111222,99999999' 
TABS,ioos:station:wmo:42047:1,2009-12-03T10:30:00Z,27.8966,-93.5973,2.0,169.8006867,11.63383428,-99999.0,'11111222,11111222,99999999' 
TABS,ioos:station:wmo:42047:1,2009-12-03T11:00:00Z,27.8966,-93.5973,2.0,180.2638229,8.680092165,-99999.0,'11133222,11111222,99999999' 
TABS,ioos:station:wmo:42047:1,2009-12-03T11:30:00Z,27.8966,-93.5973,2.0,197.9114619,6.925676862,-99999.0,'11133222,11111222,99999999' 
TABS,ioos:station:wmo:42047:1,2009-12-03T12:00:00Z,27.8966,-93.5973,2.0,224.655053,9.404690319,-99999.0,'11133222,11111222,99999999' 
TABS,ioos:station:wmo:42047:1,2009-12-03T12:30:00Z,27.8966,-93.5973,2.0,220.4866377,11.41273412,-99999.0,'11111222,11111222,99999999' 
TABS,ioos:station:wmo:42047:1,2009-12-03T13:00:00Z,27.8966,-93.5973,2.0,192.1656425,7.876902945,-99999.0,'11133222,11111222,99999999' 
TABS,ioos:station:wmo:42047:1,2009-12-03T13:30:00Z,27.8966,-93.5973,2.0,227.8836767,11.24309566,-99999.0,'11111222,11111222,99999999' 
TABS,ioos:station:wmo:42047:1,2009-12-03T14:00:00Z,27.8966,-93.5973,2.0,242.918427,7.44640853,-99999.0,'11133222,11111222,99999999' 
TABS,ioos:station:wmo:42047:1,2009-12-03T14:30:00Z,27.8966,-93.5973,2.0,217.4975481,8.394504155,-99999.0,'11133222,11111222,99999999' 
TABS,ioos:station:wmo:42047:1,2009-12-03T15:00:00Z,27.8966,-93.5973,2.0,263.3162329,8.850141242,-99999.0,'11133222,11111222,99999999' 
TABS,ioos:station:wmo:42047:1,2009-12-03T15:30:00Z,27.8966,-93.5973,2.0,297.2024587,12.46908577,-99999.0,'11111222,11111222,99999999' 
TABS,ioos:station:wmo:42047:1,2009-12-03T16:00:00Z,27.8966,-93.5973,2.0,288.6702956,14.6509556,-99999.0,'11111222,11111222,99999999' 
TABS,ioos:station:wmo:42047:1,2009-12-03T16:30:00Z,27.8966,-93.5973,2.0,308.1004819,10.71246937,-99999.0,'11111222,11111222,99999999' 
TABS,ioos:station:wmo:42047:1,2009-12-03T17:00:00Z,27.8966,-93.5973,2.0,305.0730841,9.884862164,-99999.0,'11133222,11111222,99999999' 
TABS,ioos:station:wmo:42047:1,2009-12-03T17:30:00Z,27.8966,-93.5973,2.0,300.4696911,15.30338851,-99999.0,'11111222,11111222,99999999' 
TABS,ioos:station:wmo:42047:1,2009-12-03T18:00:00Z,27.8966,-93.5973,2.0,337.2935974,12.69386072,-99999.0,'11111222,11111222,99999999' 
TABS,ioos:station:wmo:42047:1,2009-12-03T18:30:00Z,27.8966,-93.5973,2.0,336.7339145,7.772033196,-99999.0,'11133222,11111222,99999999' 
TABS,ioos:station:wmo:42047:1,2009-12-03T19:00:00Z,27.8966,-93.5973,2.0,333.4352214,11.64991416,-99999.0,'11111222,11111222,99999999' 
TABS,ioos:station:wmo:42047:1,2009-12-03T19:30:00Z,27.8966,-93.5973,2.0,329.7916851,13.79311422,-99999.0,'11111222,11111222,99999999' 
TABS,ioos:station:wmo:42047:1,2009-12-03T20:00:00Z,27.8966,-93.5973,2.0,334.698891,10.95045205,-99999.0,'11111222,11111222,99999999' 
TABS,ioos:station:wmo:42047:1,2009-12-03T20:30:00Z,27.8966,-93.5973,2.0,315.747799,9.214385492,-99999.0,'11133222,11111222,99999999' 
TABS,ioos:station:wmo:42047:1,2009-12-03T21:00:00Z,27.8966,-93.5973,2.0,346.0504511,6.429626739,-99999.0,'11133222,11111222,99999999' 
TABS,ioos:station:wmo:42047:1,2009-12-03T21:30:00Z,27.8966,-93.5973,2.0,319.3163331,3.758324095,-99999.0,'11133222,11111222,99999999' 
TABS,ioos:station:wmo:42047:1,2009-12-03T22:00:00Z,27.8966,-93.5973,2.0,3.243495157,3.004812806,-99999.0,'11133222,11111222,99999999' 
TABS,ioos:station:wmo:42047:1,2009-12-03T22:30:00Z,27.8966,-93.5973,2.0,114.5856598,12.04170254,-99999.0,'11111222,11111222,99999999' 
TABS,ioos:station:wmo:42047:1,2009-12-03T23:00:00Z,27.8966,-93.5973,2.0,117.8567795,15.47305077,-99999.0,'11111222,11111222,99999999' 
TABS,ioos:station:wmo:42047:1,2009-12-03T23:30:00Z,27.8966,-93.5973,2.0,133.137511,14.14253513,-99999.0,'11111222,11111222,99999999' 
TABS,ioos:station:wmo:42047:1,2009-12-04T00:00:00Z,27.8966,-93.5973,2.0,142.6193732,16.15864165,-99999.0,'11111222,11111222,99999999' 
TABS,ioos:station:wmo:42047:1,2009-12-04T00:30:00Z,27.8966,-93.5973,2.0,139.0388103,11.74593121,-99999.0,'11111222,11111222,99999999' 
TABS,ioos:station:wmo:42047:1,2009-12-04T01:00:00Z,27.8966,-93.5973,2.0,126.9566888,13.19001516,-99999.0,'11111222,11111222,99999999' 
TABS,ioos:station:wmo:42047:1,2009-12-04T01:30:00Z,27.8966,-93.5973,2.0,141.2214627,12.07069592,-99999.0,'11111222,11111222,99999999' 
TABS,ioos:station:wmo:42047:1,2009-12-04T02:00:00Z,27.8966,-93.5973,2.0,138.0194254,12.61816151,-99999.0,'11111222,11111222,99999999' 
TABS,ioos:station:wmo:42047:1,2009-12-04T02:30:00Z,27.8966,-93.5973,2.0,144.9195479,10.63118526,-99999.0,'11111222,11111222,99999999' 
TABS,ioos:station:wmo:42047:1,2009-12-04T03:00:00Z,27.8966,-93.5973,2.0,158.9231033,7.341123892,-99999.0,'11133222,11111222,99999999' 
TABS,ioos:station:wmo:42047:1,2009-12-04T03:30:00Z,27.8966,-93.5973,2.0,157.034863,7.407057445,-99999.0,'11133222,11111222,99999999' 
TABS,ioos:station:wmo:42047:1,2009-12-04T04:00:00Z,27.8966,-93.5973,2.0,168.9779195,9.362702601,-99999.0,'11133222,11111222,99999999' 
TABS,ioos:station:wmo:42047:1,2009-12-04T04:30:00Z,27.8966,-93.5973,2.0,144.9261171,9.18851457,-99999.0,'11133222,11111222,99999999' 
TABS,ioos:station:wmo:42047:1,2009-12-04T05:00:00Z,27.8966,-93.5973,2.0,162.464069,5.642198153,-99999.0,'11133222,11111222,99999999' 
TABS,ioos:station:wmo:42047:1,2009-12-04T05:30:00Z,27.8966,-93.5973,2.0,171.6634464,9.035468997,-99999.0,'11133222,11111222,99999999' 
TABS,ioos:station:wmo:42047:1,2009-12-04T06:00:00Z,27.8966,-93.5973,2.0,200.5376895,7.41104581,-99999.0,'11133222,11111222,99999999' 
TABS,ioos:station:wmo:42047:1,2009-12-04T06:30:00Z,27.8966,-93.5973,2.0,183.3161098,11.40910601,-99999.0,'11111222,11111222,99999999' 
TABS,ioos:station:wmo:42047:1,2009-12-04T07:00:00Z,27.8966,-93.5973,2.0,191.354388,5.028419235,-99999.0,'11133222,11111222,99999999' 
TABS,ioos:station:wmo:42047:1,2009-12-04T07:30:00Z,27.8966,-93.5973,2.0,146.7520587,7.186355126,-99999.0,'11133222,11111222,99999999' 
TABS,ioos:station:wmo:42047:1,2009-12-04T08:00:00Z,27.8966,-93.5973,2.0,197.8428774,6.429253456,-99999.0,'11133222,11111222,99999999' 
TABS,ioos:station:wmo:42047:1,2009-12-04T08:30:00Z,27.8966,-93.5973,2.0,201.9921783,7.797390589,-99999.0,'11133222,11111222,99999999' 
TABS,ioos:station:wmo:42047:1,2009-12-04T09:00:00Z,27.8966,-93.5973,2.0,191.9966608,8.996493761,-99999.0,'11133222,11111222,99999999' 
TABS,ioos:station:wmo:42047:1,2009-12-04T09:30:00Z,27.8966,-93.5973,2.0,185.2195786,10.22239209,-99999.0,'11111222,11111222,99999999' 
TABS,ioos:station:wmo:42047:1,2009-12-04T10:00:00Z,27.8966,-93.5973,2.0,200.4193937,6.391635159,-99999.0,'11133222,11111222,99999999' 
TABS,ioos:station:wmo:42047:1,2009-12-04T10:30:00Z,27.8966,-93.5973,2.0,208.0522486,8.441765218,-99999.0,'11133222,11111222,99999999' 
TABS,ioos:station:wmo:42047:1,2009-12-04T11:00:00Z,27.8966,-93.5973,2.0,215.9691542,5.090628645,-99999.0,'11133222,11111222,99999999' 
TABS,ioos:station:wmo:42047:1,2009-12-04T11:30:00Z,27.8966,-93.5973,2.0,198.8640237,13.08270996,-99999.0,'11111222,11111222,99999999' 
TABS,ioos:station:wmo:42047:1,2009-12-04T12:00:00Z,27.8966,-93.5973,2.0,241.6079561,10.24192365,-99999.0,'11111222,11111222,99999999' 
TABS,ioos:station:wmo:42047:1,2009-12-04T12:30:00Z,27.8966,-93.5973,2.0,218.1112404,13.38314238,-99999.0,'11111222,11111222,99999999' 
TABS,ioos:station:wmo:42047:1,2009-12-04T13:00:00Z,27.8966,-93.5973,2.0,231.3884169,7.371404208,-99999.0,'11133222,11111222,99999999' 
TABS,ioos:station:wmo:42047:1,2009-12-04T13:30:00Z,27.8966,-93.5973,2.0,252.8100347,8.729948453,-99999.0,'11133222,11111222,99999999' 
TABS,ioos:station:wmo:42047:1,2009-12-04T14:00:00Z,27.8966,-93.5973,2.0,257.6117091,11.46697868,-99999.0,'11111222,11111222,99999999' 
TABS,ioos:station:wmo:42047:1,2009-12-04T14:30:00Z,27.8966,-93.5973,2.0,255.7976377,17.60816004,-99999.0,'11111222,11111222,99999999' 
TABS,ioos:station:wmo:42047:1,2009-12-04T15:00:00Z,27.8966,-93.5973,2.0,264.2764583,13.63798006,-99999.0,'11111222,11111222,99999999' 
TABS,ioos:station:wmo:42047:1,2009-12-04T15:30:00Z,27.8966,-93.5973,2.0,245.3870945,13.78218052,-99999.0,'11111222,11111222,99999999' 
TABS,ioos:station:wmo:42047:1,2009-12-04T16:00:00Z,27.8966,-93.5973,2.0,262.6667135,15.04303161,-99999.0,'11111222,11111222,99999999' 